Year,Month,Day,Hour,Minute,Value (Times are PST for temperature in C)
2015,10,01,00,00,8.90
2015,10,01,00,01,8.90
2015,10,01,00,02,8.90
2015,10,01,00,03,8.90
2015,10,01,00,04,8.90
2015,10,01,00,05,8.90
2015,10,01,00,06,8.90
2015,10,01,00,07,8.90
2015,10,01,00,08,8.90
2015,10,01,00,09,8.80
2015,10,01,00,10,8.80
2015,10,01,00,11,8.80
2015,10,01,00,12,8.80
2015,10,01,00,13,8.80
2015,10,01,00,14,8.80
2015,10,01,00,15,8.70
2015,10,01,00,16,8.70
2015,10,01,00,17,8.70
2015,10,01,00,18,8.70
2015,10,01,00,19,8.80
2015,10,01,00,20,8.80
2015,10,01,00,21,8.80
2015,10,01,00,22,8.80
2015,10,01,00,23,8.70
2015,10,01,00,24,8.80
2015,10,01,00,25,8.80
2015,10,01,00,26,8.80
2015,10,01,00,27,8.80
2015,10,01,00,28,8.80
2015,10,01,00,29,8.80
2015,10,01,00,30,8.80
2015,10,01,00,31,8.80
2015,10,01,00,32,8.80
2015,10,01,00,33,8.80
2015,10,01,00,34,8.80
2015,10,01,00,35,8.80
2015,10,01,00,36,8.80
2015,10,01,00,37,8.80
2015,10,01,00,38,8.80
2015,10,01,00,39,8.80
2015,10,01,00,40,8.80
2015,10,01,00,41,8.80
2015,10,01,00,42,8.80
2015,10,01,00,43,8.80
2015,10,01,00,44,8.80
2015,10,01,00,45,8.80
2015,10,01,00,46,8.90
2015,10,01,00,47,8.90
2015,10,01,00,48,8.90
2015,10,01,00,49,8.80
2015,10,01,00,50,8.80
2015,10,01,00,51,8.80
2015,10,01,00,52,8.80
2015,10,01,00,53,8.80
2015,10,01,00,54,8.90
2015,10,01,00,55,8.80
2015,10,01,00,56,8.80
2015,10,01,00,57,8.80
2015,10,01,00,58,8.80
2015,10,01,00,59,8.80
2015,10,01,01,00,8.80
2015,10,01,01,01,8.80
2015,10,01,01,02,8.80
2015,10,01,01,03,8.70
2015,10,01,01,04,8.70
2015,10,01,01,05,8.60
2015,10,01,01,06,8.60
2015,10,01,01,07,8.60
2015,10,01,01,08,8.50
2015,10,01,01,09,8.50
2015,10,01,01,10,8.40
2015,10,01,01,11,8.40
2015,10,01,01,12,8.40
2015,10,01,01,13,8.40
2015,10,01,01,14,8.30
2015,10,01,01,15,8.30
2015,10,01,01,16,8.30
2015,10,01,01,17,8.30
2015,10,01,01,18,8.30
2015,10,01,01,19,8.30
2015,10,01,01,20,8.30
2015,10,01,01,21,8.30
2015,10,01,01,22,8.30
2015,10,01,01,23,8.30
2015,10,01,01,24,8.30
2015,10,01,01,25,8.30
2015,10,01,01,26,8.30
2015,10,01,01,27,8.30
2015,10,01,01,28,8.30
2015,10,01,01,29,8.30
2015,10,01,01,30,8.30
2015,10,01,01,31,8.30
2015,10,01,01,32,8.30
2015,10,01,01,33,8.30
2015,10,01,01,34,8.30
2015,10,01,01,35,8.30
2015,10,01,01,36,8.30
2015,10,01,01,37,8.30
2015,10,01,01,38,8.30
2015,10,01,01,39,8.30
2015,10,01,01,40,8.30
2015,10,01,01,41,8.20
2015,10,01,01,42,8.20
2015,10,01,01,43,8.20
2015,10,01,01,44,8.10
2015,10,01,01,45,8.10
2015,10,01,01,46,8.20
2015,10,01,01,47,8.20
2015,10,01,01,48,8.30
2015,10,01,01,49,8.30
2015,10,01,01,50,8.30
2015,10,01,01,51,8.30
2015,10,01,01,52,8.30
2015,10,01,01,53,8.30
2015,10,01,01,54,8.20
2015,10,01,01,55,8.20
2015,10,01,01,56,8.20
2015,10,01,01,57,8.20
2015,10,01,01,58,8.10
2015,10,01,01,59,8.10
2015,10,01,02,00,8.10
2015,10,01,02,01,8.10
2015,10,01,02,02,8.10
2015,10,01,02,03,8.10
2015,10,01,02,04,8.10
2015,10,01,02,05,8.10
2015,10,01,02,06,8.10
2015,10,01,02,07,8.00
2015,10,01,02,08,8.00
2015,10,01,02,09,7.90
2015,10,01,02,10,7.90
2015,10,01,02,11,8.00
2015,10,01,02,12,8.00
2015,10,01,02,13,8.00
2015,10,01,02,14,7.90
2015,10,01,02,15,7.90
2015,10,01,02,16,7.90
2015,10,01,02,17,7.90
2015,10,01,02,18,7.90
2015,10,01,02,19,7.80
2015,10,01,02,20,7.80
2015,10,01,02,21,7.80
2015,10,01,02,22,7.80
2015,10,01,02,23,7.80
2015,10,01,02,24,7.80
2015,10,01,02,25,7.80
2015,10,01,02,26,7.80
2015,10,01,02,27,7.80
2015,10,01,02,28,7.80
2015,10,01,02,29,7.80
2015,10,01,02,30,7.80
2015,10,01,02,31,7.80
2015,10,01,02,32,7.80
2015,10,01,02,33,7.80
2015,10,01,02,34,7.80
2015,10,01,02,35,7.80
2015,10,01,02,36,7.80
2015,10,01,02,37,7.70
2015,10,01,02,38,7.70
2015,10,01,02,39,7.70
2015,10,01,02,40,7.60
2015,10,01,02,41,7.60
2015,10,01,02,42,7.60
2015,10,01,02,43,7.60
2015,10,01,02,44,7.60
2015,10,01,02,45,7.60
2015,10,01,02,46,7.70
2015,10,01,02,47,7.70
2015,10,01,02,48,7.70
2015,10,01,02,49,7.70
2015,10,01,02,50,7.60
2015,10,01,02,51,7.60
2015,10,01,02,52,7.70
2015,10,01,02,53,7.70
2015,10,01,02,54,7.70
2015,10,01,02,55,7.70
2015,10,01,02,56,7.70
2015,10,01,02,57,7.70
2015,10,01,02,58,7.70
2015,10,01,02,59,7.70
2015,10,01,03,00,7.70
2015,10,01,03,01,7.70
2015,10,01,03,02,7.70
2015,10,01,03,03,7.60
2015,10,01,03,04,7.50
2015,10,01,03,05,7.50
2015,10,01,03,06,7.40
2015,10,01,03,07,7.30
2015,10,01,03,08,7.20
2015,10,01,03,09,7.20
2015,10,01,03,10,7.20
2015,10,01,03,11,7.20
2015,10,01,03,12,7.20
2015,10,01,03,13,7.20
2015,10,01,03,14,7.20
2015,10,01,03,15,7.20
2015,10,01,03,16,7.20
2015,10,01,03,17,7.20
2015,10,01,03,18,7.20
2015,10,01,03,19,7.20
2015,10,01,03,20,7.30
2015,10,01,03,21,7.30
2015,10,01,03,22,7.30
2015,10,01,03,23,7.30
2015,10,01,03,24,7.30
2015,10,01,03,25,7.40
2015,10,01,03,26,7.40
2015,10,01,03,27,7.40
2015,10,01,03,28,7.50
2015,10,01,03,29,7.60
2015,10,01,03,30,7.60
2015,10,01,03,31,7.60
2015,10,01,03,32,7.60
2015,10,01,03,33,7.50
2015,10,01,03,34,7.60
2015,10,01,03,35,7.60
2015,10,01,03,36,7.60
2015,10,01,03,37,7.60
2015,10,01,03,38,7.60
2015,10,01,03,39,7.60
2015,10,01,03,40,7.60
2015,10,01,03,41,7.60
2015,10,01,03,42,7.60
2015,10,01,03,43,7.60
2015,10,01,03,44,7.60
2015,10,01,03,45,7.60
2015,10,01,03,46,7.60
2015,10,01,03,47,7.60
2015,10,01,03,48,7.50
2015,10,01,03,49,7.50
2015,10,01,03,50,7.40
2015,10,01,03,51,7.30
2015,10,01,03,52,7.30
2015,10,01,03,53,7.30
2015,10,01,03,54,7.30
2015,10,01,03,55,7.30
2015,10,01,03,56,7.30
2015,10,01,03,57,7.30
2015,10,01,03,58,7.30
2015,10,01,03,59,7.20
2015,10,01,04,00,7.20
2015,10,01,04,01,7.20
2015,10,01,04,02,7.20
2015,10,01,04,03,7.30
2015,10,01,04,04,7.30
2015,10,01,04,05,7.40
2015,10,01,04,06,7.40
2015,10,01,04,07,7.40
2015,10,01,04,08,7.40
2015,10,01,04,09,7.50
2015,10,01,04,10,7.50
2015,10,01,04,11,7.70
2015,10,01,04,12,7.80
2015,10,01,04,13,7.90
2015,10,01,04,14,7.90
2015,10,01,04,15,7.90
2015,10,01,04,16,7.80
2015,10,01,04,17,7.70
2015,10,01,04,18,7.60
2015,10,01,04,19,7.50
2015,10,01,04,20,7.40
2015,10,01,04,21,7.40
2015,10,01,04,22,7.50
2015,10,01,04,23,7.50
2015,10,01,04,24,7.50
2015,10,01,04,25,7.40
2015,10,01,04,26,7.40
2015,10,01,04,27,7.40
2015,10,01,04,28,7.40
2015,10,01,04,29,7.50
2015,10,01,04,30,7.50
2015,10,01,04,31,7.60
2015,10,01,04,32,7.60
2015,10,01,04,33,7.70
2015,10,01,04,34,7.70
2015,10,01,04,35,7.70
2015,10,01,04,36,7.70
2015,10,01,04,37,7.70
2015,10,01,04,38,7.60
2015,10,01,04,39,7.60
2015,10,01,04,40,7.50
2015,10,01,04,41,7.40
2015,10,01,04,42,7.30
2015,10,01,04,43,7.30
2015,10,01,04,44,7.20
2015,10,01,04,45,7.20
2015,10,01,04,46,7.20
2015,10,01,04,47,7.20
2015,10,01,04,48,7.20
2015,10,01,04,49,7.20
2015,10,01,04,50,7.20
2015,10,01,04,51,7.20
2015,10,01,04,52,7.30
2015,10,01,04,53,7.40
2015,10,01,04,54,7.50
2015,10,01,04,55,7.50
2015,10,01,04,56,7.60
2015,10,01,04,57,7.60
2015,10,01,04,58,7.70
2015,10,01,04,59,7.70
2015,10,01,05,00,7.70
2015,10,01,05,01,7.60
2015,10,01,05,02,7.60
2015,10,01,05,03,7.60
2015,10,01,05,04,7.50
2015,10,01,05,05,7.40
2015,10,01,05,06,7.30
2015,10,01,05,07,7.30
2015,10,01,05,08,7.20
2015,10,01,05,09,7.20
2015,10,01,05,10,7.20
2015,10,01,05,11,7.20
2015,10,01,05,12,7.20
2015,10,01,05,13,7.30
2015,10,01,05,14,7.30
2015,10,01,05,15,7.30
2015,10,01,05,16,7.30
2015,10,01,05,17,7.30
2015,10,01,05,18,7.30
2015,10,01,05,19,7.30
2015,10,01,05,20,7.30
2015,10,01,05,21,7.30
2015,10,01,05,22,7.30
2015,10,01,05,23,7.30
2015,10,01,05,24,7.30
2015,10,01,05,25,7.30
2015,10,01,05,26,7.30
2015,10,01,05,27,7.30
2015,10,01,05,28,7.30
2015,10,01,05,29,7.30
2015,10,01,05,30,7.40
2015,10,01,05,31,7.40
2015,10,01,05,32,7.40
2015,10,01,05,33,7.40
2015,10,01,05,34,7.40
2015,10,01,05,35,7.40
2015,10,01,05,36,7.30
2015,10,01,05,37,7.30
2015,10,01,05,38,7.20
2015,10,01,05,39,7.20
2015,10,01,05,40,7.30
2015,10,01,05,41,7.30
2015,10,01,05,42,7.30
2015,10,01,05,43,7.40
2015,10,01,05,44,7.40
2015,10,01,05,45,7.40
2015,10,01,05,46,7.40
2015,10,01,05,47,7.40
2015,10,01,05,48,7.50
2015,10,01,05,49,7.50
2015,10,01,05,50,7.50
2015,10,01,05,51,7.40
2015,10,01,05,52,7.30
2015,10,01,05,53,7.20
2015,10,01,05,54,7.20
2015,10,01,05,55,7.10
2015,10,01,05,56,7.00
2015,10,01,05,57,7.00
2015,10,01,05,58,7.00
2015,10,01,05,59,7.00
2015,10,01,06,00,7.00
2015,10,01,06,01,7.00
2015,10,01,06,02,7.00
2015,10,01,06,03,7.00
2015,10,01,06,04,7.00
2015,10,01,06,05,6.90
2015,10,01,06,06,6.90
2015,10,01,06,07,6.90
2015,10,01,06,08,6.90
2015,10,01,06,09,6.90
2015,10,01,06,10,6.80
2015,10,01,06,11,6.80
2015,10,01,06,12,6.80
2015,10,01,06,13,6.80
2015,10,01,06,14,6.80
2015,10,01,06,15,6.90
2015,10,01,06,16,6.90
2015,10,01,06,17,6.90
2015,10,01,06,18,6.90
2015,10,01,06,19,7.00
2015,10,01,06,20,7.00
2015,10,01,06,21,7.10
2015,10,01,06,22,7.20
2015,10,01,06,23,7.20
2015,10,01,06,24,7.20
2015,10,01,06,25,7.20
2015,10,01,06,26,7.30
2015,10,01,06,27,7.30
2015,10,01,06,28,7.20
2015,10,01,06,29,7.20
2015,10,01,06,30,7.20
2015,10,01,06,31,7.20
2015,10,01,06,32,7.20
2015,10,01,06,33,7.20
2015,10,01,06,34,7.10
2015,10,01,06,35,7.00
2015,10,01,06,36,6.80
2015,10,01,06,37,6.80
2015,10,01,06,38,6.70
2015,10,01,06,39,6.70
2015,10,01,06,40,6.70
2015,10,01,06,41,6.70
2015,10,01,06,42,6.70
2015,10,01,06,43,6.70
2015,10,01,06,44,6.70
2015,10,01,06,45,6.70
2015,10,01,06,46,6.80
2015,10,01,06,47,6.80
2015,10,01,06,48,6.80
2015,10,01,06,49,6.80
2015,10,01,06,50,6.80
2015,10,01,06,51,6.80
2015,10,01,06,52,6.90
2015,10,01,06,53,6.90
2015,10,01,06,54,6.90
2015,10,01,06,55,6.90
2015,10,01,06,56,6.90
2015,10,01,06,57,7.00
2015,10,01,06,58,7.00
2015,10,01,06,59,7.00
2015,10,01,07,00,7.00
2015,10,01,07,01,7.00
2015,10,01,07,02,6.90
2015,10,01,07,03,6.90
2015,10,01,07,04,6.90
2015,10,01,07,05,6.80
2015,10,01,07,06,6.80
2015,10,01,07,07,6.80
2015,10,01,07,08,6.70
2015,10,01,07,09,6.70
2015,10,01,07,10,6.70
2015,10,01,07,11,6.70
2015,10,01,07,12,6.70
2015,10,01,07,13,6.70
2015,10,01,07,14,6.80
2015,10,01,07,15,6.70
2015,10,01,07,16,6.80
2015,10,01,07,17,6.80
2015,10,01,07,18,6.80
2015,10,01,07,19,6.80
2015,10,01,07,20,6.70
2015,10,01,07,21,6.70
2015,10,01,07,22,6.80
2015,10,01,07,23,6.80
2015,10,01,07,24,6.80
2015,10,01,07,25,6.80
2015,10,01,07,26,6.80
2015,10,01,07,27,6.90
2015,10,01,07,28,6.90
2015,10,01,07,29,6.80
2015,10,01,07,30,6.80
2015,10,01,07,31,6.80
2015,10,01,07,32,6.80
2015,10,01,07,33,6.80
2015,10,01,07,34,6.80
2015,10,01,07,35,6.90
2015,10,01,07,36,6.90
2015,10,01,07,37,6.90
2015,10,01,07,38,7.00
2015,10,01,07,39,7.10
2015,10,01,07,40,7.20
2015,10,01,07,41,7.20
2015,10,01,07,42,7.20
2015,10,01,07,43,7.20
2015,10,01,07,44,7.20
2015,10,01,07,45,7.20
2015,10,01,07,46,7.20
2015,10,01,07,47,7.20
2015,10,01,07,48,7.20
2015,10,01,07,49,7.20
2015,10,01,07,50,7.20
2015,10,01,07,51,7.20
2015,10,01,07,52,7.20
2015,10,01,07,53,7.20
2015,10,01,07,54,7.10
2015,10,01,07,55,7.10
2015,10,01,07,56,7.00
2015,10,01,07,57,7.00
2015,10,01,07,58,7.00
2015,10,01,07,59,7.10
2015,10,01,08,00,7.10
2015,10,01,08,01,7.10
2015,10,01,08,02,7.10
2015,10,01,08,03,7.10
2015,10,01,08,04,7.10
2015,10,01,08,05,7.10
2015,10,01,08,06,7.20
2015,10,01,08,07,7.20
2015,10,01,08,08,7.20
2015,10,01,08,09,7.20
2015,10,01,08,10,7.20
2015,10,01,08,11,7.20
2015,10,01,08,12,7.20
2015,10,01,08,13,7.30
2015,10,01,08,14,7.40
2015,10,01,08,15,7.40
2015,10,01,08,16,7.50
2015,10,01,08,17,7.50
2015,10,01,08,18,7.40
2015,10,01,08,19,7.40
2015,10,01,08,20,7.40
2015,10,01,08,21,7.40
2015,10,01,08,22,7.50
2015,10,01,08,23,7.50
2015,10,01,08,24,7.60
2015,10,01,08,25,7.60
2015,10,01,08,26,7.60
2015,10,01,08,27,7.60
2015,10,01,08,28,7.70
2015,10,01,08,29,7.70
2015,10,01,08,30,7.70
2015,10,01,08,31,7.80
2015,10,01,08,32,7.80
2015,10,01,08,33,7.90
2015,10,01,08,34,7.90
2015,10,01,08,35,8.00
2015,10,01,08,36,8.10
2015,10,01,08,37,8.20
2015,10,01,08,38,8.20
2015,10,01,08,39,8.30
2015,10,01,08,40,8.40
2015,10,01,08,41,8.40
2015,10,01,08,42,8.50
2015,10,01,08,43,8.60
2015,10,01,08,44,8.70
2015,10,01,08,45,8.70
2015,10,01,08,46,8.80
2015,10,01,08,47,8.90
2015,10,01,08,48,9.00
2015,10,01,08,49,9.00
2015,10,01,08,50,9.10
2015,10,01,08,51,9.20
2015,10,01,08,52,9.30
2015,10,01,08,53,9.40
2015,10,01,08,54,9.50
2015,10,01,08,55,9.60
2015,10,01,08,56,9.60
2015,10,01,08,57,9.80
2015,10,01,08,58,9.90
2015,10,01,08,59,10.00
2015,10,01,09,00,10.10
2015,10,01,09,01,10.20
2015,10,01,09,02,10.30
2015,10,01,09,03,10.40
2015,10,01,09,04,10.50
2015,10,01,09,05,10.60
2015,10,01,09,06,10.70
2015,10,01,09,07,10.80
2015,10,01,09,08,10.90
2015,10,01,09,09,11.00
2015,10,01,09,10,11.10
2015,10,01,09,11,11.20
2015,10,01,09,12,11.30
2015,10,01,09,13,11.30
2015,10,01,09,14,11.40
2015,10,01,09,15,11.50
2015,10,01,09,16,11.60
2015,10,01,09,17,11.60
2015,10,01,09,18,11.70
2015,10,01,09,19,11.70
2015,10,01,09,20,11.80
2015,10,01,09,21,11.80
2015,10,01,09,22,11.90
2015,10,01,09,23,11.90
2015,10,01,09,24,12.00
2015,10,01,09,25,12.00
2015,10,01,09,26,12.10
2015,10,01,09,27,12.20
2015,10,01,09,28,12.20
2015,10,01,09,29,12.30
2015,10,01,09,30,12.30
2015,10,01,09,31,12.40
2015,10,01,09,32,12.40
2015,10,01,09,33,12.50
2015,10,01,09,34,12.50
2015,10,01,09,35,12.60
2015,10,01,09,36,12.60
2015,10,01,09,37,12.70
2015,10,01,09,38,12.70
2015,10,01,09,39,12.70
2015,10,01,09,40,12.80
2015,10,01,09,41,12.80
2015,10,01,09,42,12.80
2015,10,01,09,43,12.80
2015,10,01,09,44,12.90
2015,10,01,09,45,12.90
2015,10,01,09,46,12.90
2015,10,01,09,47,13.00
2015,10,01,09,48,13.00
2015,10,01,09,49,13.00
2015,10,01,09,50,13.10
2015,10,01,09,51,13.10
2015,10,01,09,52,13.20
2015,10,01,09,53,13.20
2015,10,01,09,54,13.30
2015,10,01,09,55,13.30
2015,10,01,09,56,13.30
2015,10,01,09,57,13.40
2015,10,01,09,58,13.40
2015,10,01,09,59,13.50
2015,10,01,10,00,13.50
2015,10,01,10,01,13.60
2015,10,01,10,02,13.60
2015,10,01,10,03,13.70
2015,10,01,10,04,13.70
2015,10,01,10,05,13.70
2015,10,01,10,06,13.80
2015,10,01,10,07,13.80
2015,10,01,10,08,13.90
2015,10,01,10,09,13.90
2015,10,01,10,10,13.90
2015,10,01,10,11,13.90
2015,10,01,10,12,14.00
2015,10,01,10,13,14.00
2015,10,01,10,14,14.00
2015,10,01,10,15,14.10
2015,10,01,10,16,14.10
2015,10,01,10,17,14.10
2015,10,01,10,18,14.10
2015,10,01,10,19,14.20
2015,10,01,10,20,14.20
2015,10,01,10,21,14.20
2015,10,01,10,22,14.20
2015,10,01,10,23,14.20
2015,10,01,10,24,14.30
2015,10,01,10,25,14.30
2015,10,01,10,26,14.40
2015,10,01,10,27,14.50
2015,10,01,10,28,14.50
2015,10,01,10,29,14.60
2015,10,01,10,30,14.60
2015,10,01,10,31,14.70
2015,10,01,10,32,14.70
2015,10,01,10,33,14.70
2015,10,01,10,34,14.80
2015,10,01,10,35,14.90
2015,10,01,10,36,15.00
2015,10,01,10,37,15.00
2015,10,01,10,38,15.00
2015,10,01,10,39,15.00
2015,10,01,10,40,15.00
2015,10,01,10,41,15.00
2015,10,01,10,42,15.00
2015,10,01,10,43,15.00
2015,10,01,10,44,15.00
2015,10,01,10,45,15.00
2015,10,01,10,46,15.10
2015,10,01,10,47,15.10
2015,10,01,10,48,15.10
2015,10,01,10,49,15.00
2015,10,01,10,50,15.10
2015,10,01,10,51,15.20
2015,10,01,10,52,15.20
2015,10,01,10,53,15.30
2015,10,01,10,54,15.30
2015,10,01,10,55,15.40
2015,10,01,10,56,15.60
2015,10,01,10,57,15.70
2015,10,01,10,58,15.80
2015,10,01,10,59,15.90
2015,10,01,11,00,16.00
2015,10,01,11,01,16.00
2015,10,01,11,02,15.80
2015,10,01,11,03,15.80
2015,10,01,11,04,15.70
2015,10,01,11,05,15.70
2015,10,01,11,06,15.70
2015,10,01,11,07,15.70
2015,10,01,11,08,15.60
2015,10,01,11,09,15.60
2015,10,01,11,10,15.60
2015,10,01,11,11,15.60
2015,10,01,11,12,15.60
2015,10,01,11,13,15.60
2015,10,01,11,14,15.50
2015,10,01,11,15,15.40
2015,10,01,11,16,15.30
2015,10,01,11,17,15.30
2015,10,01,11,18,15.30
2015,10,01,11,19,15.30
2015,10,01,11,20,15.30
2015,10,01,11,21,15.30
2015,10,01,11,22,15.40
2015,10,01,11,23,15.40
2015,10,01,11,24,15.40
2015,10,01,11,25,15.40
2015,10,01,11,26,15.50
2015,10,01,11,27,15.40
2015,10,01,11,28,15.40
2015,10,01,11,29,15.50
2015,10,01,11,30,15.50
2015,10,01,11,31,15.60
2015,10,01,11,32,15.50
2015,10,01,11,33,15.50
2015,10,01,11,34,15.60
2015,10,01,11,35,15.60
2015,10,01,11,36,15.50
2015,10,01,11,37,15.40
2015,10,01,11,38,15.40
2015,10,01,11,39,15.40
2015,10,01,11,40,15.40
2015,10,01,11,41,15.40
2015,10,01,11,42,15.40
2015,10,01,11,43,15.50
2015,10,01,11,44,15.60
2015,10,01,11,45,15.60
2015,10,01,11,46,15.70
2015,10,01,11,47,15.80
2015,10,01,11,48,15.80
2015,10,01,11,49,15.90
2015,10,01,11,50,16.00
2015,10,01,11,51,16.10
2015,10,01,11,52,16.10
2015,10,01,11,53,16.20
2015,10,01,11,54,16.20
2015,10,01,11,55,16.20
2015,10,01,11,56,16.20
2015,10,01,11,57,16.20
2015,10,01,11,58,16.30
2015,10,01,11,59,16.30
2015,10,01,12,00,16.30
2015,10,01,12,01,16.30
2015,10,01,12,02,16.30
2015,10,01,12,03,16.30
2015,10,01,12,04,16.30
2015,10,01,12,05,16.20
2015,10,01,12,06,16.00
2015,10,01,12,07,15.90
2015,10,01,12,08,15.90
2015,10,01,12,09,15.80
2015,10,01,12,10,15.70
2015,10,01,12,11,15.70
2015,10,01,12,12,15.70
2015,10,01,12,13,15.70
2015,10,01,12,14,15.70
2015,10,01,12,15,15.70
2015,10,01,12,16,15.70
2015,10,01,12,17,15.70
2015,10,01,12,18,15.70
2015,10,01,12,19,15.70
2015,10,01,12,20,15.70
2015,10,01,12,21,15.70
2015,10,01,12,22,15.80
2015,10,01,12,23,15.90
2015,10,01,12,24,16.00
2015,10,01,12,25,16.00
2015,10,01,12,26,16.10
2015,10,01,12,27,16.10
2015,10,01,12,28,16.00
2015,10,01,12,29,16.10
2015,10,01,12,30,16.10
2015,10,01,12,31,16.20
2015,10,01,12,32,16.20
2015,10,01,12,33,16.20
2015,10,01,12,34,16.20
2015,10,01,12,35,16.20
2015,10,01,12,36,16.10
2015,10,01,12,37,16.10
2015,10,01,12,38,16.10
2015,10,01,12,39,16.10
2015,10,01,12,40,16.10
2015,10,01,12,41,16.20
2015,10,01,12,42,16.20
2015,10,01,12,43,16.30
2015,10,01,12,44,16.30
2015,10,01,12,45,16.20
2015,10,01,12,46,16.20
2015,10,01,12,47,16.10
2015,10,01,12,48,16.10
2015,10,01,12,49,16.20
2015,10,01,12,50,16.20
2015,10,01,12,51,16.20
2015,10,01,12,52,16.20
2015,10,01,12,53,16.10
2015,10,01,12,54,16.10
2015,10,01,12,55,16.00
2015,10,01,12,56,16.00
2015,10,01,12,57,16.10
2015,10,01,12,58,16.30
2015,10,01,12,59,16.40
2015,10,01,13,00,16.40
2015,10,01,13,01,16.40
2015,10,01,13,02,16.60
2015,10,01,13,03,16.70
2015,10,01,13,04,16.80
2015,10,01,13,05,16.90
2015,10,01,13,06,16.90
2015,10,01,13,07,17.00
2015,10,01,13,08,17.10
2015,10,01,13,09,17.00
2015,10,01,13,10,17.00
2015,10,01,13,11,16.90
2015,10,01,13,12,16.90
2015,10,01,13,13,16.80
2015,10,01,13,14,16.80
2015,10,01,13,15,16.80
2015,10,01,13,16,16.80
2015,10,01,13,17,16.70
2015,10,01,13,18,16.70
2015,10,01,13,19,16.80
2015,10,01,13,20,16.90
2015,10,01,13,21,17.00
2015,10,01,13,22,17.10
2015,10,01,13,23,17.20
2015,10,01,13,24,17.30
2015,10,01,13,25,17.50
2015,10,01,13,26,17.60
2015,10,01,13,27,17.70
2015,10,01,13,28,17.80
2015,10,01,13,29,17.90
2015,10,01,13,30,18.00
2015,10,01,13,31,18.00
2015,10,01,13,32,18.10
2015,10,01,13,33,18.20
2015,10,01,13,34,18.20
2015,10,01,13,35,18.30
2015,10,01,13,36,18.30
2015,10,01,13,37,18.30
2015,10,01,13,38,18.30
2015,10,01,13,39,18.20
2015,10,01,13,40,18.20
2015,10,01,13,41,18.20
2015,10,01,13,42,18.20
2015,10,01,13,43,18.30
2015,10,01,13,44,18.40
2015,10,01,13,45,18.40
2015,10,01,13,46,18.40
2015,10,01,13,47,18.40
2015,10,01,13,48,18.40
2015,10,01,13,49,18.50
2015,10,01,13,50,18.50
2015,10,01,13,51,18.40
2015,10,01,13,52,18.40
2015,10,01,13,53,18.30
2015,10,01,13,54,18.30
2015,10,01,13,55,18.20
2015,10,01,13,56,18.20
2015,10,01,13,57,18.20
2015,10,01,13,58,18.10
2015,10,01,13,59,18.00
2015,10,01,14,00,17.90
2015,10,01,14,01,17.90
2015,10,01,14,02,18.00
2015,10,01,14,03,18.00
2015,10,01,14,04,18.10
2015,10,01,14,05,18.20
2015,10,01,14,06,18.30
2015,10,01,14,07,18.30
2015,10,01,14,08,18.30
2015,10,01,14,09,18.30
2015,10,01,14,10,18.30
2015,10,01,14,11,18.40
2015,10,01,14,12,18.30
2015,10,01,14,13,18.30
2015,10,01,14,14,18.30
2015,10,01,14,15,18.40
2015,10,01,14,16,18.40
2015,10,01,14,17,18.40
2015,10,01,14,18,18.40
2015,10,01,14,19,18.40
2015,10,01,14,20,18.40
2015,10,01,14,21,18.40
2015,10,01,14,22,18.40
2015,10,01,14,23,18.50
2015,10,01,14,24,18.60
2015,10,01,14,25,18.70
2015,10,01,14,26,18.80
2015,10,01,14,27,18.90
2015,10,01,14,28,18.90
2015,10,01,14,29,19.00
2015,10,01,14,30,19.10
2015,10,01,14,31,19.20
2015,10,01,14,32,19.30
2015,10,01,14,33,19.40
2015,10,01,14,34,19.60
2015,10,01,14,35,19.70
2015,10,01,14,36,19.90
2015,10,01,14,37,20.00
2015,10,01,14,38,20.00
2015,10,01,14,39,20.00
2015,10,01,14,40,20.10
2015,10,01,14,41,20.20
2015,10,01,14,42,20.30
2015,10,01,14,43,20.40
2015,10,01,14,44,20.40
2015,10,01,14,45,20.50
2015,10,01,14,46,20.50
2015,10,01,14,47,20.50
2015,10,01,14,48,20.40
2015,10,01,14,49,20.40
2015,10,01,14,50,20.40
2015,10,01,14,51,20.50
2015,10,01,14,52,20.50
2015,10,01,14,53,20.60
2015,10,01,14,54,20.60
2015,10,01,14,55,20.60
2015,10,01,14,56,20.70
2015,10,01,14,57,20.60
2015,10,01,14,58,20.40
2015,10,01,14,59,20.10
2015,10,01,15,00,19.90
2015,10,01,15,01,19.70
2015,10,01,15,02,19.50
2015,10,01,15,03,19.40
2015,10,01,15,04,19.20
2015,10,01,15,05,19.10
2015,10,01,15,06,19.10
2015,10,01,15,07,19.10
2015,10,01,15,08,19.10
2015,10,01,15,09,19.10
2015,10,01,15,10,19.10
2015,10,01,15,11,19.10
2015,10,01,15,12,19.10
2015,10,01,15,13,19.20
2015,10,01,15,14,19.40
2015,10,01,15,15,19.50
2015,10,01,15,16,19.60
2015,10,01,15,17,19.80
2015,10,01,15,18,19.90
2015,10,01,15,19,20.00
2015,10,01,15,20,20.10
2015,10,01,15,21,20.20
2015,10,01,15,22,20.30
2015,10,01,15,23,20.40
2015,10,01,15,24,20.50
2015,10,01,15,25,20.70
2015,10,01,15,26,20.70
2015,10,01,15,27,20.70
2015,10,01,15,28,20.70
2015,10,01,15,29,20.80
2015,10,01,15,30,20.90
2015,10,01,15,31,21.00
2015,10,01,15,32,21.00
2015,10,01,15,33,21.10
2015,10,01,15,34,21.10
2015,10,01,15,35,21.20
2015,10,01,15,36,21.20
2015,10,01,15,37,21.10
2015,10,01,15,38,21.10
2015,10,01,15,39,21.10
2015,10,01,15,40,21.10
2015,10,01,15,41,21.00
2015,10,01,15,42,20.80
2015,10,01,15,43,20.70
2015,10,01,15,44,20.60
2015,10,01,15,45,20.60
2015,10,01,15,46,20.50
2015,10,01,15,47,20.50
2015,10,01,15,48,20.40
2015,10,01,15,49,20.40
2015,10,01,15,50,20.40
2015,10,01,15,51,20.40
2015,10,01,15,52,20.30
2015,10,01,15,53,20.30
2015,10,01,15,54,20.30
2015,10,01,15,55,20.30
2015,10,01,15,56,20.40
2015,10,01,15,57,20.40
2015,10,01,15,58,20.40
2015,10,01,15,59,20.40
2015,10,01,16,00,20.30
2015,10,01,16,01,20.20
2015,10,01,16,02,20.00
2015,10,01,16,03,20.00
2015,10,01,16,04,20.00
2015,10,01,16,05,19.90
2015,10,01,16,06,19.90
2015,10,01,16,07,19.90
2015,10,01,16,08,20.00
2015,10,01,16,09,20.10
2015,10,01,16,10,20.10
2015,10,01,16,11,20.10
2015,10,01,16,12,20.00
2015,10,01,16,13,20.00
2015,10,01,16,14,20.00
2015,10,01,16,15,20.00
2015,10,01,16,16,20.00
2015,10,01,16,17,20.00
2015,10,01,16,18,20.00
2015,10,01,16,19,20.00
2015,10,01,16,20,20.00
2015,10,01,16,21,20.00
2015,10,01,16,22,19.90
2015,10,01,16,23,19.90
2015,10,01,16,24,19.90
2015,10,01,16,25,20.00
2015,10,01,16,26,20.00
2015,10,01,16,27,20.10
2015,10,01,16,28,20.10
2015,10,01,16,29,20.20
2015,10,01,16,30,20.20
2015,10,01,16,31,20.10
2015,10,01,16,32,20.10
2015,10,01,16,33,20.10
2015,10,01,16,34,20.10
2015,10,01,16,35,20.00
2015,10,01,16,36,19.90
2015,10,01,16,37,19.80
2015,10,01,16,38,19.60
2015,10,01,16,39,19.40
2015,10,01,16,40,19.20
2015,10,01,16,41,19.00
2015,10,01,16,42,18.90
2015,10,01,16,43,18.80
2015,10,01,16,44,18.70
2015,10,01,16,45,18.60
2015,10,01,16,46,18.60
2015,10,01,16,47,18.50
2015,10,01,16,48,18.50
2015,10,01,16,49,18.40
2015,10,01,16,50,18.40
2015,10,01,16,51,18.30
2015,10,01,16,52,18.30
2015,10,01,16,53,18.30
2015,10,01,16,54,18.30
2015,10,01,16,55,18.30
2015,10,01,16,56,18.40
2015,10,01,16,57,18.50
2015,10,01,16,58,18.50
2015,10,01,16,59,18.60
2015,10,01,17,00,18.60
2015,10,01,17,01,18.60
2015,10,01,17,02,18.70
2015,10,01,17,03,18.70
2015,10,01,17,04,18.80
2015,10,01,17,05,18.80
2015,10,01,17,06,18.80
2015,10,01,17,07,18.80
2015,10,01,17,08,18.90
2015,10,01,17,09,18.90
2015,10,01,17,10,19.00
2015,10,01,17,11,19.00
2015,10,01,17,12,19.10
2015,10,01,17,13,19.20
2015,10,01,17,14,19.30
2015,10,01,17,15,19.40
2015,10,01,17,16,19.50
2015,10,01,17,17,19.60
2015,10,01,17,18,19.60
2015,10,01,17,19,19.60
2015,10,01,17,20,19.60
2015,10,01,17,21,19.50
2015,10,01,17,22,19.50
2015,10,01,17,23,19.40
2015,10,01,17,24,19.30
2015,10,01,17,25,19.20
2015,10,01,17,26,19.20
2015,10,01,17,27,19.10
2015,10,01,17,28,19.10
2015,10,01,17,29,19.00
2015,10,01,17,30,19.00
2015,10,01,17,31,18.90
2015,10,01,17,32,18.80
2015,10,01,17,33,18.90
2015,10,01,17,34,18.90
2015,10,01,17,35,18.90
2015,10,01,17,36,18.90
2015,10,01,17,37,18.80
2015,10,01,17,38,18.80
2015,10,01,17,39,18.80
2015,10,01,17,40,18.80
2015,10,01,17,41,18.90
2015,10,01,17,42,18.90